TimeCDT,TemperatureF,Dew PointF,Humidity,Sea Level PressureIn,VisibilityMPH,Wind Direction,Wind SpeedMPH,Gust SpeedMPH,PrecipitationIn,Events,Conditions,WindDirDegrees,DateUTC
12:53 AM,54.0,46.9,77,30.14,10.0,Calm,Calm,-,N/A,,Clear,0,2013-04-06 05:53:00
1:53 AM,50.0,46.0,86,30.12,10.0,Calm,Calm,-,N/A,,Clear,0,2013-04-06 06:53:00
2:53 AM,51.1,46.9,86,30.07,10.0,SE,6.9,-,N/A,,Clear,130,2013-04-06 07:53:00
3:53 AM,51.1,46.9,86,30.05,9.0,SE,6.9,-,N/A,,Clear,130,2013-04-06 08:53:00
4:53 AM,53.1,48.9,86,30.06,9.0,Calm,Calm,-,N/A,,Clear,0,2013-04-06 09:53:00
5:53 AM,53.1,48.9,86,30.06,8.0,Calm,Calm,-,N/A,,Clear,0,2013-04-06 10:53:00
6:53 AM,54.0,50.0,86,30.06,9.0,Calm,Calm,-,N/A,,Clear,0,2013-04-06 11:53:00
7:53 AM,55.9,52.0,87,30.08,8.0,ESE,4.6,-,N/A,,Clear,120,2013-04-06 12:53:00
8:53 AM,61.0,54.0,78,30.09,10.0,SSE,8.1,-,N/A,,Clear,150,2013-04-06 13:53:00
9:51 AM,66.2,55.4,68,30.10,10.0,SSE,16.1,23.0,N/A,,Mostly Cloudy,160,2013-04-06 14:51:00
9:53 AM,66.0,54.0,65,30.10,10.0,SSE,15.0,23.0,N/A,,Mostly Cloudy,160,2013-04-06 14:53:00
10:53 AM,66.0,54.0,65,30.12,10.0,SSE,16.1,21.9,N/A,,Mostly Cloudy,150,2013-04-06 15:53:00
11:24 AM,66.2,53.6,64,30.11,10.0,South,10.4,-,N/A,,Mostly Cloudy,180,2013-04-06 16:24:00
11:53 AM,69.1,54.0,58,30.10,10.0,South,13.8,-,N/A,,Mostly Cloudy,180,2013-04-06 16:53:00
12:01 PM,69.8,53.6,56,30.10,10.0,SSE,15.0,23.0,N/A,,Mostly Cloudy,150,2013-04-06 17:01:00
12:53 PM,69.1,55.0,61,30.09,10.0,South,13.8,18.4,N/A,,Mostly Cloudy,180,2013-04-06 17:53:00
1:53 PM,71.1,54.0,55,30.06,10.0,SSE,12.7,20.7,N/A,,Mostly Cloudy,150,2013-04-06 18:53:00
2:53 PM,71.1,55.0,57,30.04,10.0,SSE,16.1,21.9,N/A,,Overcast,160,2013-04-06 19:53:00
3:53 PM,71.1,55.0,57,30.01,10.0,SSE,12.7,23.0,N/A,,Mostly Cloudy,160,2013-04-06 20:53:00
4:53 PM,72.0,55.0,55,29.99,10.0,SSE,12.7,19.6,N/A,,Mostly Cloudy,160,2013-04-06 21:53:00
5:53 PM,70.0,55.0,59,29.99,10.0,SSE,9.2,-,N/A,,Scattered Clouds,160,2013-04-06 22:53:00
6:53 PM,69.1,55.9,63,29.99,10.0,SSE,9.2,-,N/A,,Scattered Clouds,160,2013-04-06 23:53:00
7:53 PM,66.0,57.0,73,29.98,10.0,SSE,8.1,-,N/A,,Clear,160,2013-04-07 00:53:00
8:53 PM,64.9,57.9,78,29.99,10.0,SSE,4.6,-,N/A,,Clear,150,2013-04-07 01:53:00
9:53 PM,63.0,57.9,84,30.00,10.0,SE,3.5,-,N/A,,Scattered Clouds,140,2013-04-07 02:53:00
10:53 PM,63.0,59.0,87,30.00,10.0,SSE,4.6,-,N/A,,Scattered Clouds,150,2013-04-07 03:53:00
11:53 PM,63.0,59.0,87,30.00,10.0,SE,3.5,-,N/A,,Overcast,130,2013-04-07 04:53:00